KE5HAM Weather Reports


time (UTC)temp
F
wind
direction
speed
knots
gust
knots
rain 1hr
in
rain 24hr
in
rain mn
in
humidity
%
barometer
mb
20260510192504 90 0 0.0 0.0 0.00 0.00 0.00 72 1011.4
20260510191504 89 0 0.0 0.0 0.00 0.00 0.00 71 1011.6
20260510191004 89 0 0.0 0.0 0.00 0.00 0.00 70 1011.6
20260510190504 89 0 0.0 0.0 0.00 0.00 0.00 71 1011.6
20260510190004 89 0 0.0 0.0 0.00 0.00 0.00 69 1011.6
20260510185504 89 0 0.0 0.0 0.00 0.00 0.00 69 1011.6
20260510185007 89 0 0.0 0.0 0.00 0.00 0.00 68 1011.7
20260510184503 89 0 0.0 0.0 0.00 0.00 0.00 68 1011.7
20260510184004 89 0 0.0 0.0 0.00 0.00 0.00 68 1011.8
20260510183503 90 0 0.0 0.0 0.00 0.00 0.00 68 1011.8
20260510183004 90 0 0.0 0.0 0.00 0.00 0.00 68 1011.9
20260510182503 89 0 0.0 0.0 0.00 0.00 0.00 68 1012.0
20260510182003 89 0 0.0 0.0 0.00 0.00 0.00 70 1012.0
20260510181504 88 0 0.0 0.0 0.00 0.00 0.00 69 1012.1
20260510181004 88 0 0.0 0.0 0.00 0.00 0.00 70 1012.1
20260510180004 87 0 0.0 0.0 0.00 0.00 0.00 72 1012.3
20260510175504 87 0 0.0 0.0 0.00 0.00 0.00 72 1012.4
20260510175004 87 0 0.0 0.0 0.00 0.00 0.00 72 1012.3
20260510174504 87 0 0.0 0.0 0.00 0.00 0.00 72 1012.5
20260510174004 87 0 0.0 0.0 0.00 0.00 0.00 72 1012.5
20260510173504 87 0 0.0 0.0 0.00 0.00 0.00 72 1012.6
20260510173004 87 0 0.0 0.0 0.00 0.00 0.00 73 1012.6
20260510172504 87 0 0.0 0.0 0.00 0.00 0.00 72 1012.6
20260510172004 86 0 0.0 0.0 0.00 0.00 0.00 72 1012.7
20260510171504 86 0 0.0 0.0 0.00 0.00 0.00 73 1012.7
20260510171004 86 0 0.0 0.0 0.00 0.00 0.00 74 1012.9
20260510170004 86 0 0.0 0.0 0.00 0.00 0.00 73 1012.9
20260510165504 86 0 0.0 0.0 0.00 0.00 0.00 74 1012.9
20260510165004 86 0 0.0 0.0 0.00 0.00 0.00 75 1012.9
20260510164504 86 0 0.0 0.0 0.00 0.00 0.00 75 1013.0
20260510163004 85 0 0.0 0.0 0.00 0.00 0.00 77 1012.9
20260510162504 85 0 0.0 0.0 0.00 0.00 0.00 78 1012.9
20260510162004 84 0 0.0 0.0 0.00 0.00 0.00 80 1012.9
20260510161504 84 0 0.0 0.0 0.00 0.00 0.00 80 1012.9
20260510161004 83 0 0.0 0.0 0.00 0.00 0.00 81 1012.9
20260510160503 83 0 0.0 0.0 0.00 0.00 0.00 82 1013.0
20260510160004 82 0 0.0 0.0 0.00 0.00 0.00 82 1013.1
20260510155504 82 0 0.0 0.0 0.00 0.00 0.00 83 1013.2
20260510154004 81 0 0.0 0.0 0.00 0.00 0.00 87 1013.1
20260510153504 80 0 0.0 0.0 0.00 0.00 0.00 88 1013.0
20260510152504 79 0 0.0 0.0 0.00 0.00 0.00 89 1013.0
20260510152003 79 0 0.0 0.0 0.00 0.00 0.00 89 1013.0
20260510151504 79 0 0.0 0.0 0.00 0.00 0.00 90 1013.1
20260510151003 79 0 0.0 0.0 0.00 0.00 0.00 90 1013.1
20260510150504 78 0 0.0 0.0 0.00 0.00 0.00 90 1013.1
20260510150003 78 0 0.0 0.0 0.00 0.00 0.00 90 1013.1
20260510145504 78 0 0.0 0.0 0.00 0.00 0.00 91 1013.0
20260510145003 78 0 0.0 0.0 0.00 0.00 0.00 91 1012.9
20260510144503 78 0 0.0 0.0 0.00 0.00 0.00 91 1012.9
20260510144004 78 0 0.0 0.0 0.00 0.00 0.00 91 1012.9
20260510143504 78 0 0.0 0.0 0.00 0.00 0.00 91 1012.8
20260510143004 78 0 0.0 0.0 0.00 0.00 0.00 91 1012.7
20260510142504 78 0 0.0 0.0 0.00 0.00 0.00 91 1012.6
20260510142004 78 0 0.0 0.0 0.00 0.00 0.00 91 1012.6
20260510141504 77 0 0.0 0.0 0.00 0.00 0.00 91 1012.6
20260510141003 78 0 0.0 0.0 0.00 0.00 0.00 91 1012.5
20260510140504 77 0 0.0 0.0 0.00 0.00 0.00 91 1012.4
20260510140003 77 0 0.0 0.0 0.00 0.00 0.00 91 1012.3
20260510135504 77 0 0.0 0.0 0.00 0.00 0.00 91 1012.2
20260510135004 77 0 0.0 0.0 0.00 0.00 0.00 91 1012.1
20260510134504 76 0 0.0 0.0 0.00 0.00 0.00 91 1011.9
20260510134004 76 0 0.0 0.0 0.00 0.00 0.00 91 1011.9
20260510133503 76 0 0.0 0.0 0.00 0.00 0.00 91 1011.9
20260510132504 75 0 0.0 0.0 0.00 0.00 0.00 91 1011.6
20260510132004 74 0 0.0 0.0 0.00 0.00 0.00 91 1011.5
20260510131004 73 0 0.0 0.0 0.00 0.00 0.00 90 1011.3
20260510130503 73 0 0.0 0.0 0.00 0.00 0.00 90 1011.2
20260510130004 73 0 0.0 0.0 0.00 0.00 0.00 90 1011.1
20260510125503 72 0 0.0 0.0 0.00 0.00 0.00 90 1011.0
20260510125003 72 0 0.0 0.0 0.00 0.00 0.00 90 1011.0
20260510124504 72 0 0.0 0.0 0.00 0.00 0.00 90 1010.9
20260510124004 72 0 0.0 0.0 0.00 0.00 0.00 90 1010.8
20260510123503 71 0 0.0 0.0 0.00 0.00 0.00 90 1010.9
20260510123004 71 0 0.0 0.0 0.00 0.00 0.00 90 1010.9
20260510122004 71 0 0.0 0.0 0.00 0.00 0.00 90 1010.9
20260510121004 71 0 0.0 0.0 0.00 0.00 0.00 90 1010.8
20260510120504 71 0 0.0 0.0 0.00 0.00 0.00 90 1010.6
20260510115004 71 0 0.0 0.0 0.00 0.00 0.00 90 1010.5
20260510114504 71 0 0.0 0.0 0.00 0.00 0.00 89 1010.4
20260510113504 71 0 0.0 0.0 0.00 0.00 0.00 89 1010.3
20260510113003 71 0 0.0 0.0 0.00 0.00 0.00 89 1010.2
20260510112503 71 0 0.0 0.0 0.00 0.00 0.00 89 1010.2
20260510111504 71 0 0.0 0.0 0.00 0.00 0.00 90 1010.2
20260510110003 70 0 0.0 0.0 0.00 0.00 0.00 89 1010.1
20260510105504 70 0 0.0 0.0 0.00 0.00 0.00 89 1010.2
20260510105004 70 0 0.0 0.0 0.00 0.00 0.00 89 1010.2
20260510104504 70 0 0.0 0.0 0.00 0.00 0.00 89 1010.2
20260510104005 70 0 0.0 0.0 0.00 0.00 0.00 89 1010.2
20260510103504 70 0 0.0 0.0 0.00 0.00 0.00 89 1010.1
20260510102503 70 0 0.0 0.0 0.00 0.00 0.00 89 1010.1
20260510102004 71 0 0.0 0.0 0.00 0.00 0.00 89 1010.0
20260510101504 71 0 0.0 0.0 0.00 0.00 0.00 89 1010.0
20260510100503 71 0 0.0 0.0 0.00 0.00 0.00 89 1009.9
20260510100004 71 0 0.0 0.0 0.00 0.00 0.00 89 1010.0
20260510095504 71 0 0.0 0.0 0.00 0.00 0.00 89 1010.0
20260510095004 71 0 0.0 0.0 0.00 0.00 0.00 89 1010.0
20260510094503 71 0 0.0 0.0 0.00 0.00 0.00 89 1009.9
20260510094004 71 0 0.0 0.0 0.00 0.00 0.00 89 1009.8
20260510093503 71 0 0.0 0.0 0.00 0.00 0.00 89 1009.7